Time,TemperatureF,DewpointF,PressureIn,WindDirection,WindDirectionDegrees,WindSpeedMPH,WindSpeedGustMPH,Humidity,HourlyPrecipIn,Conditions,Clouds,dailyrainin,SoftwareType,DateUTC
2017-04-26 00:05:00,64.4,61.1,28.60,SSW,197,5.6,8.9,88,0.00,,,-99.99,Onset +HOBO +Station,2017-04-26 04:05:00,
2017-04-26 00:07:00,64.4,61.1,28.60,SSW,192,5.6,8.5,88,0.00,,,-99.99,Onset +HOBO +Station,2017-04-26 04:07:00,
2017-04-26 00:15:00,64.3,61.0,28.61,South,191,6.3,8.9,88,0.00,,,-99.99,Onset +HOBO +Station,2017-04-26 04:15:00,
2017-04-26 00:25:00,64.1,60.9,28.60,South,191,6.3,9.6,89,0.00,,,-99.99,Onset +HOBO +Station,2017-04-26 04:25:00,
2017-04-26 00:26:00,64.3,61.0,28.60,South,187,6.3,9.6,89,0.00,,,-99.99,Onset +HOBO +Station,2017-04-26 04:26:00,
2017-04-26 00:35:00,64.3,61.1,28.60,South,188,6.7,9.6,89,0.00,,,-99.99,Onset +HOBO +Station,2017-04-26 04:35:00,
2017-04-26 00:44:00,64.2,60.9,28.60,South,187,6.7,9.6,88,0.00,,,-99.99,Onset +HOBO +Station,2017-04-26 04:44:00,
2017-04-26 00:53:00,64.2,60.8,28.60,South,178,6.7,8.9,88,0.00,,,-99.99,Onset +HOBO +Station,2017-04-26 04:53:00,
2017-04-26 01:00:00,63.8,60.6,28.59,SSE,161,8.5,10.7,89,0.00,,,-99.99,Onset +HOBO +Station,2017-04-26 05:00:00,
2017-04-26 01:03:00,64.1,60.8,28.60,South,174,7.4,10.1,88,0.00,,,-99.99,Onset +HOBO +Station,2017-04-26 05:03:00,
2017-04-26 01:10:00,64.0,60.7,28.59,South,180,8.5,11.2,89,0.00,,,-99.99,Onset +HOBO +Station,2017-04-26 05:10:00,
2017-04-26 01:12:00,63.8,60.7,28.59,SSE,168,8.5,10.7,89,0.00,,,-99.99,Onset +HOBO +Station,2017-04-26 05:12:00,
2017-04-26 01:20:00,63.8,60.5,28.59,South,173,8.9,12.3,89,0.00,,,-99.99,Onset +HOBO +Station,2017-04-26 05:20:00,
2017-04-26 01:23:00,63.9,60.6,28.59,South,177,8.5,11.2,89,0.00,,,-99.99,Onset +HOBO +Station,2017-04-26 05:23:00,
2017-04-26 01:30:00,63.4,60.3,28.59,SSE,166,7.8,10.1,89,0.00,,,-99.99,Onset +HOBO +Station,2017-04-26 05:30:00,
2017-04-26 01:32:00,63.7,60.5,28.59,South,171,8.9,11.9,89,0.00,,,-99.99,Onset +HOBO +Station,2017-04-26 05:32:00,
2017-04-26 01:40:00,62.9,60.0,28.59,SSE,153,7.8,10.1,90,0.00,,,-99.99,Onset +HOBO +Station,2017-04-26 05:40:00,
2017-04-26 01:41:00,63.1,60.1,28.59,SSE,161,7.4,10.1,89,0.00,,,-99.99,Onset +HOBO +Station,2017-04-26 05:41:00,
2017-04-26 01:50:00,62.6,59.9,28.59,SSE,152,7.8,10.7,90,0.00,,,-99.99,Onset +HOBO +Station,2017-04-26 05:50:00,
2017-04-26 01:51:00,62.7,59.9,28.59,SSE,154,7.4,8.9,90,0.00,,,-99.99,Onset +HOBO +Station,2017-04-26 05:51:00,
2017-04-26 02:00:00,62.3,59.7,28.59,SSE,149,7.8,9.6,91,0.00,,,-99.99,Onset +HOBO +Station,2017-04-26 06:00:00,
2017-04-26 02:10:00,62.5,59.9,28.59,SSE,150,7.8,11.2,91,0.00,,,-99.99,Onset +HOBO +Station,2017-04-26 06:10:00,
2017-04-26 02:19:00,62.2,59.7,28.59,SSE,150,7.8,10.1,91,0.00,,,-99.99,Onset +HOBO +Station,2017-04-26 06:19:00,
2017-04-26 02:29:00,61.9,59.5,28.59,SE,145,5.1,7.8,91,0.00,,,-99.99,Onset +HOBO +Station,2017-04-26 06:29:00,
2017-04-26 02:30:00,61.8,59.5,28.61,SSE,157,2.9,4.0,92,0.00,,,-99.99,Onset +HOBO +Station,2017-04-26 06:30:00,
2017-04-26 02:40:00,61.5,59.3,28.61,SSE,161,2.9,4.0,92,0.00,,,-99.99,Onset +HOBO +Station,2017-04-26 06:40:00,
2017-04-26 02:45:00,61.4,59.4,28.61,South,181,4.0,6.7,92,0.00,,,-99.99,Onset +HOBO +Station,2017-04-26 06:45:00,
2017-04-26 02:48:00,61.3,59.2,28.61,South,181,3.4,6.3,92,0.00,,,-99.99,Onset +HOBO +Station,2017-04-26 06:48:00,
2017-04-26 02:55:00,61.2,59.3,28.61,South,175,4.5,6.3,93,0.00,,,-99.99,Onset +HOBO +Station,2017-04-26 06:55:00,
2017-04-26 02:58:00,61.2,59.2,28.61,South,181,4.0,5.6,92,0.00,,,-99.99,Onset +HOBO +Station,2017-04-26 06:58:00,
2017-04-26 03:05:00,61.0,59.1,28.61,South,177,5.1,7.4,93,0.00,,,-99.99,Onset +HOBO +Station,2017-04-26 07:05:00,
2017-04-26 03:07:00,61.1,59.1,28.60,South,175,5.1,6.7,93,0.00,,,-99.99,Onset +HOBO +Station,2017-04-26 07:07:00,
2017-04-26 03:15:00,60.9,59.0,28.59,SSE,159,5.6,7.8,93,0.00,,,-99.99,Onset +HOBO +Station,2017-04-26 07:15:00,
2017-04-26 03:17:00,61.0,59.1,28.60,SSE,166,5.6,7.4,93,0.00,,,-99.99,Onset +HOBO +Station,2017-04-26 07:17:00,
2017-04-26 03:25:00,61.1,59.1,28.59,South,170,6.3,8.9,93,0.00,,,-99.99,Onset +HOBO +Station,2017-04-26 07:25:00,
2017-04-26 03:26:00,60.8,58.9,28.59,SSE,161,6.3,7.8,93,0.00,,,-99.99,Onset +HOBO +Station,2017-04-26 07:26:00,
2017-04-26 03:35:00,60.6,58.7,28.60,South,181,4.5,6.7,93,0.00,,,-99.99,Onset +HOBO +Station,2017-04-26 07:35:00,
2017-04-26 03:36:00,60.8,58.8,28.60,South,180,5.1,7.4,93,0.00,,,-99.99,Onset +HOBO +Station,2017-04-26 07:36:00,
2017-04-26 03:45:00,60.3,58.6,28.60,South,184,4.5,6.3,93,0.00,,,-99.99,Onset +HOBO +Station,2017-04-26 07:45:00,
2017-04-26 03:55:00,60.3,58.6,28.60,South,185,5.1,6.7,94,0.00,,,-99.99,Onset +HOBO +Station,2017-04-26 07:55:00,
2017-04-26 04:04:00,60.3,58.6,28.60,South,181,5.1,6.7,94,0.00,,,-99.99,Onset +HOBO +Station,2017-04-26 08:04:00,
2017-04-26 04:05:00,60.0,58.4,28.60,South,183,5.1,6.7,94,0.00,,,-99.99,Onset +HOBO +Station,2017-04-26 08:05:00,
2017-04-26 04:15:00,60.0,58.4,28.60,South,184,5.1,7.4,94,0.00,,,-99.99,Onset +HOBO +Station,2017-04-26 08:15:00,
2017-04-26 04:24:00,60.0,58.4,28.60,South,184,5.1,7.4,94,0.00,,,-99.99,Onset +HOBO +Station,2017-04-26 08:24:00,
2017-04-26 04:30:00,59.8,58.3,28.60,South,188,5.6,8.5,94,0.00,,,-99.99,Onset +HOBO +Station,2017-04-26 08:30:00,
2017-04-26 04:33:00,59.7,58.2,28.61,South,191,5.6,7.8,94,0.00,,,-99.99,Onset +HOBO +Station,2017-04-26 08:33:00,
2017-04-26 04:40:00,59.8,58.3,28.60,South,191,5.1,7.4,94,0.00,,,-99.99,Onset +HOBO +Station,2017-04-26 08:40:00,
2017-04-26 04:42:00,59.6,58.1,28.60,South,191,5.1,6.7,94,0.00,,,-99.99,Onset +HOBO +Station,2017-04-26 08:42:00,
2017-04-26 04:50:00,59.9,58.3,28.60,South,177,6.7,8.5,94,0.00,,,-99.99,Onset +HOBO +Station,2017-04-26 08:50:00,
2017-04-26 04:52:00,59.9,58.4,28.60,South,183,6.3,8.5,94,0.00,,,-99.99,Onset +HOBO +Station,2017-04-26 08:52:00,
2017-04-26 05:00:00,60.0,58.3,28.59,South,170,7.8,9.6,94,0.00,,,-99.99,Onset +HOBO +Station,2017-04-26 09:00:00,
2017-04-26 05:02:00,60.0,58.4,28.60,South,171,7.8,10.1,94,0.00,,,-99.99,Onset +HOBO +Station,2017-04-26 09:02:00,
2017-04-26 05:10:00,59.6,58.0,28.59,South,174,7.4,9.6,94,0.00,,,-99.99,Onset +HOBO +Station,2017-04-26 09:10:00,
2017-04-26 05:11:00,59.9,58.2,28.59,South,174,7.4,10.1,94,0.00,,,-99.99,Onset +HOBO +Station,2017-04-26 09:11:00,
2017-04-26 05:20:00,59.6,58.1,28.60,South,175,7.4,9.6,94,0.00,,,-99.99,Onset +HOBO +Station,2017-04-26 09:20:00,
2017-04-26 05:30:00,59.6,58.0,28.60,South,171,7.8,10.7,94,0.00,,,-99.99,Onset +HOBO +Station,2017-04-26 09:30:00,
2017-04-26 05:41:00,59.4,57.9,28.60,South,170,7.8,11.2,94,0.00,,,-99.99,Onset +HOBO +Station,2017-04-26 09:41:00,
2017-04-26 05:49:00,59.3,57.9,28.59,South,173,7.8,11.2,95,0.00,,,-99.99,Onset +HOBO +Station,2017-04-26 09:49:00,
2017-04-26 05:59:00,59.1,57.7,28.60,South,177,7.8,10.7,95,0.00,,,-99.99,Onset +HOBO +Station,2017-04-26 09:59:00,
2017-04-26 06:05:00,59.1,57.7,28.60,South,170,8.5,12.3,95,0.00,,,-99.99,Onset +HOBO +Station,2017-04-26 10:05:00,
2017-04-26 06:08:00,59.2,57.8,28.60,South,174,8.5,11.2,95,0.00,,,-99.99,Onset +HOBO +Station,2017-04-26 10:08:00,
2017-04-26 06:15:00,59.3,57.9,28.60,South,175,8.9,11.9,95,0.00,,,-99.99,Onset +HOBO +Station,2017-04-26 10:15:00,
2017-04-26 06:17:00,59.3,57.9,28.60,South,171,8.9,11.9,95,0.00,,,-99.99,Onset +HOBO +Station,2017-04-26 10:17:00,
2017-04-26 06:25:00,59.6,58.1,28.60,South,178,9.6,13.0,94,0.00,,,-99.99,Onset +HOBO +Station,2017-04-26 10:25:00,
2017-04-26 06:27:00,59.5,58.0,28.61,South,174,9.6,12.3,94,0.00,,,-99.99,Onset +HOBO +Station,2017-04-26 10:27:00,
2017-04-26 06:35:00,59.3,57.8,28.60,South,181,9.6,14.1,94,0.00,,,-99.99,Onset +HOBO +Station,2017-04-26 10:35:00,
2017-04-26 06:38:00,59.4,57.9,28.60,South,178,8.9,12.3,94,0.00,,,-99.99,Onset +HOBO +Station,2017-04-26 10:38:00,
2017-04-26 06:45:00,59.8,58.2,28.60,South,185,10.1,14.1,94,0.00,,,-99.99,Onset +HOBO +Station,2017-04-26 10:45:00,
2017-04-26 06:46:00,59.5,57.9,28.60,South,181,9.6,12.3,94,0.00,,,-99.99,Onset +HOBO +Station,2017-04-26 10:46:00,
2017-04-26 06:55:00,59.7,58.0,28.60,South,184,10.1,15.2,94,0.00,,,-99.99,Onset +HOBO +Station,2017-04-26 10:55:00,
2017-04-26 06:56:00,59.6,57.9,28.60,South,184,8.9,12.3,94,0.00,,,-99.99,Onset +HOBO +Station,2017-04-26 10:56:00,
2017-04-26 07:05:00,59.8,58.1,28.60,South,181,10.1,15.2,93,0.00,,,-99.99,Onset +HOBO +Station,2017-04-26 11:05:00,
2017-04-26 07:15:00,59.5,57.8,28.60,South,175,9.6,12.3,94,0.00,,,-99.99,Onset +HOBO +Station,2017-04-26 11:15:00,
2017-04-26 07:25:00,59.4,57.9,28.61,South,173,10.7,13.4,94,0.00,,,-99.99,Onset +HOBO +Station,2017-04-26 11:25:00,
2017-04-26 07:26:00,59.4,57.8,28.61,South,174,9.6,13.0,94,0.00,,,-99.99,Onset +HOBO +Station,2017-04-26 11:26:00,
2017-04-26 07:38:00,60.0,58.5,28.61,South,174,10.7,14.5,94,0.00,,,-99.99,Onset +HOBO +Station,2017-04-26 11:38:00,
2017-04-26 07:43:00,60.2,58.5,28.61,South,174,11.2,14.1,94,0.00,,,-99.99,Onset +HOBO +Station,2017-04-26 11:43:00,
2017-04-26 07:50:00,60.6,59.0,28.60,South,170,10.1,14.1,94,0.00,,,-99.99,Onset +HOBO +Station,2017-04-26 11:50:00,
2017-04-26 07:53:00,60.3,58.6,28.61,South,171,10.7,14.1,93,0.00,,,-99.99,Onset +HOBO +Station,2017-04-26 11:53:00,
2017-04-26 08:00:00,61.1,59.2,28.60,South,171,11.2,15.2,93,0.00,,,-99.99,Onset +HOBO +Station,2017-04-26 12:00:00,
2017-04-26 08:02:00,61.1,59.3,28.60,South,170,10.7,14.1,93,0.00,,,-99.99,Onset +HOBO +Station,2017-04-26 12:02:00,
2017-04-26 08:10:00,61.3,59.4,28.59,SSE,167,11.9,15.2,93,0.00,,,-99.99,Onset +HOBO +Station,2017-04-26 12:10:00,
2017-04-26 08:12:00,61.2,59.4,28.60,SSE,167,11.2,15.9,93,0.00,,,-99.99,Onset +HOBO +Station,2017-04-26 12:12:00,
2017-04-26 08:20:00,61.9,59.9,28.59,SSE,167,11.9,18.1,92,0.00,,,-99.99,Onset +HOBO +Station,2017-04-26 12:20:00,
2017-04-26 08:22:00,61.8,59.9,28.59,SSE,164,11.9,14.5,93,0.00,,,-99.99,Onset +HOBO +Station,2017-04-26 12:22:00,
2017-04-26 08:30:00,62.1,59.9,28.59,SSE,168,11.9,16.3,92,0.00,,,-99.99,Onset +HOBO +Station,2017-04-26 12:30:00,
2017-04-26 08:31:00,61.9,59.7,28.59,South,171,13.0,17.0,92,0.00,,,-99.99,Onset +HOBO +Station,2017-04-26 12:31:00,
2017-04-26 08:40:00,62.5,60.3,28.60,South,170,11.2,16.3,92,0.00,,,-99.99,Onset +HOBO +Station,2017-04-26 12:40:00,
2017-04-26 08:50:00,62.9,60.5,28.60,South,170,10.1,14.5,91,0.00,,,-99.99,Onset +HOBO +Station,2017-04-26 12:50:00,
2017-04-26 09:00:00,63.5,61.0,28.60,South,178,8.5,14.1,91,0.00,,,-99.99,Onset +HOBO +Station,2017-04-26 13:00:00,
2017-04-26 09:02:00,63.1,60.8,28.60,South,177,8.5,14.1,92,0.00,,,-99.99,Onset +HOBO +Station,2017-04-26 13:02:00,
2017-04-26 09:10:00,65.6,62.3,28.61,South,190,10.1,14.1,89,0.00,,,-99.99,Onset +HOBO +Station,2017-04-26 13:10:00,
2017-04-26 09:14:00,64.8,62.0,28.61,South,188,8.9,14.1,90,0.00,,,-99.99,Onset +HOBO +Station,2017-04-26 13:14:00,
2017-04-26 09:22:00,65.8,62.1,28.61,SSW,197,8.5,14.5,88,0.00,,,-99.99,Onset +HOBO +Station,2017-04-26 13:22:00,
2017-04-26 09:25:00,66.8,62.8,28.61,SSW,201,8.9,13.0,87,0.00,,,-99.99,Onset +HOBO +Station,2017-04-26 13:25:00,
2017-04-26 09:28:00,66.5,62.8,28.61,SSW,199,8.9,15.2,87,0.00,,,-99.99,Onset +HOBO +Station,2017-04-26 13:28:00,
2017-04-26 09:35:00,67.1,63.0,28.60,SSW,194,8.9,15.2,86,0.00,,,-99.99,Onset +HOBO +Station,2017-04-26 13:35:00,
2017-04-26 09:37:00,66.5,62.4,28.60,SSW,201,10.1,15.2,86,0.00,,,-99.99,Onset +HOBO +Station,2017-04-26 13:37:00,
2017-04-26 09:45:00,67.4,63.0,28.61,SSW,194,9.6,14.1,85,0.00,,,-99.99,Onset +HOBO +Station,2017-04-26 13:45:00,
2017-04-26 09:48:00,67.2,62.9,28.60,South,190,9.6,13.4,85,0.00,,,-99.99,Onset +HOBO +Station,2017-04-26 13:48:00,
2017-04-26 09:55:00,68.4,63.6,28.61,SSW,212,9.6,14.1,84,0.00,,,-99.99,Onset +HOBO +Station,2017-04-26 13:55:00,
2017-04-26 09:57:00,68.3,63.7,28.61,SSW,204,8.9,15.2,85,0.00,,,-99.99,Onset +HOBO +Station,2017-04-26 13:57:00,
2017-04-26 10:05:00,68.5,63.4,28.60,SSW,209,11.2,17.4,83,0.00,,,-99.99,Onset +HOBO +Station,2017-04-26 14:05:00,
2017-04-26 10:06:00,68.4,63.4,28.61,SSW,208,10.7,19.2,84,0.00,,,-99.99,Onset +HOBO +Station,2017-04-26 14:06:00,
2017-04-26 10:15:00,69.2,64.0,28.59,South,178,10.1,16.3,83,0.00,,,-99.99,Onset +HOBO +Station,2017-04-26 14:15:00,
2017-04-26 10:16:00,69.0,63.9,28.60,SSW,202,7.8,11.2,83,0.00,,,-99.99,Onset +HOBO +Station,2017-04-26 14:16:00,
2017-04-26 10:25:00,70.0,64.6,28.60,South,187,7.4,11.9,82,0.00,,,-99.99,Onset +HOBO +Station,2017-04-26 14:25:00,
2017-04-26 10:34:00,70.0,64.4,28.59,South,191,8.9,15.9,82,0.00,,,-99.99,Onset +HOBO +Station,2017-04-26 14:34:00,
2017-04-26 10:44:00,70.6,64.9,28.59,South,187,8.5,13.0,81,0.00,,,-99.99,Onset +HOBO +Station,2017-04-26 14:44:00,
2017-04-26 10:53:00,71.4,65.2,28.58,South,181,9.6,13.4,80,0.00,,,-99.99,Onset +HOBO +Station,2017-04-26 14:53:00,
2017-04-26 11:00:00,70.5,64.1,28.58,South,175,10.7,16.3,80,0.00,,,-99.99,Onset +HOBO +Station,2017-04-26 15:00:00,
2017-04-26 11:03:00,71.3,64.9,28.58,South,171,9.6,13.4,80,0.00,,,-99.99,Onset +HOBO +Station,2017-04-26 15:03:00,
2017-04-26 11:10:00,70.6,64.4,28.58,South,183,10.7,15.2,80,0.00,,,-99.99,Onset +HOBO +Station,2017-04-26 15:10:00,
2017-04-26 11:14:00,70.4,64.1,28.57,South,191,10.7,17.4,80,0.00,,,-99.99,Onset +HOBO +Station,2017-04-26 15:14:00,
2017-04-26 11:20:00,72.0,65.8,28.57,SSE,167,8.5,14.5,80,0.00,,,-99.99,Onset +HOBO +Station,2017-04-26 15:20:00,
2017-04-26 11:22:00,71.0,64.7,28.58,South,177,9.6,13.0,80,0.00,,,-99.99,Onset +HOBO +Station,2017-04-26 15:22:00,
2017-04-26 11:30:00,72.9,66.1,28.58,SSW,201,8.9,14.1,79,0.00,,,-99.99,Onset +HOBO +Station,2017-04-26 15:30:00,
2017-04-26 11:33:00,72.4,65.8,28.57,South,187,10.7,15.9,79,0.00,,,-99.99,Onset +HOBO +Station,2017-04-26 15:33:00,
2017-04-26 11:40:00,72.8,65.8,28.58,SSW,195,10.1,17.4,78,0.00,,,-99.99,Onset +HOBO +Station,2017-04-26 15:40:00,
2017-04-26 11:41:00,72.7,65.9,28.58,SSW,201,10.1,14.1,79,0.00,,,-99.99,Onset +HOBO +Station,2017-04-26 15:41:00,
2017-04-26 11:51:00,72.9,66.1,28.58,SSW,208,8.9,14.1,79,0.00,,,-99.99,Onset +HOBO +Station,2017-04-26 15:51:00,